DW8027 Weather Reports


Display with metric or nautical units.
time (UTC)temp
F
wind
direction
speed
MPH
gust
MPH
rain 1hr
in
rain 24hr
in
rain mn
in
humidity
%
barometer
mb
20180525052326 72 287 0.0 0.0 0.00 0.00 0.00 97 1018.2
20180525051831 72 287 0.0 0.0 0.00 0.00 0.00 97 1018.2
20180525051337 72 287 0.0 0.0 0.00 0.00 0.00 97 1018.2
20180525050843 73 287 0.0 0.0 0.00 0.00 0.00 97 1018.1
20180525050328 73 287 0.0 0.0 0.00 0.00 0.00 97 1018.1
20180525045833 73 287 0.0 0.0 0.00 0.00 0.00 97 1018.3
20180525045339 73 287 0.0 0.0 0.00 0.00 0.00 97 1018.3
20180525044843 73 287 0.0 0.0 0.00 0.00 0.00 97 1018.4
20180525044329 73 287 0.0 0.0 0.00 0.00 0.00 97 1018.4
20180525043835 73 287 0.0 0.0 0.00 0.00 0.00 97 1018.5
20180525043340 73 287 0.0 0.0 0.00 0.00 0.00 97 1018.5
20180525042826 73 287 0.0 0.0 0.00 0.00 0.00 97 1018.5
20180525042330 73 287 0.0 0.0 0.00 0.00 0.00 97 1018.5
20180525041834 73 287 0.0 0.0 0.00 0.00 0.00 97 1018.5
20180525041339 73 287 0.0 0.0 0.00 0.00 0.00 97 1018.5
20180525040825 73 287 0.0 0.0 0.00 0.00 0.00 97 1018.5
20180525040331 73 287 0.0 0.0 0.00 0.00 0.00 97 1018.4
20180525035836 73 287 0.0 0.0 0.00 0.00 0.00 97 1018.3
20180525035341 73 287 0.0 0.0 0.00 0.00 0.00 97 1018.3
20180525034827 73 287 0.0 0.0 0.00 0.00 0.00 97 1018.3
20180525034333 73 287 0.0 0.0 0.00 0.00 0.00 97 1018.3
20180525033838 73 287 0.0 0.0 0.00 0.00 0.00 97 1018.4
20180525033344 73 287 0.0 0.0 0.00 0.00 0.00 97 1018.4
20180525032829 73 287 0.0 0.0 0.00 0.00 0.00 97 1018.2
20180525032335 73 287 0.0 0.0 0.00 0.00 0.00 97 1018.3
20180525031841 73 287 0.0 0.0 0.00 0.00 0.00 96 1018.4
20180525031327 73 287 0.0 0.0 0.00 0.00 0.00 96 1018.3
20180525030833 73 287 0.0 0.0 0.00 0.00 0.00 96 1018.1
20180525030338 73 287 0.0 0.0 0.00 0.00 0.00 96 1018.1
20180525025843 73 287 0.0 0.0 0.00 0.00 0.00 96 1018.3
20180525025329 73 287 0.0 0.0 0.00 0.00 0.00 96 1018.2
20180525024835 73 287 0.0 0.0 0.00 0.00 0.00 96 1018.2
20180525024341 74 287 0.0 0.0 0.00 0.00 0.00 96 1018.1
20180525023826 74 287 0.0 0.0 0.00 0.00 0.00 96 1018.0
20180525023332 74 287 0.0 0.0 0.00 0.00 0.00 95 1017.9
20180525022837 74 287 0.0 0.0 0.00 0.00 0.00 95 1017.7
20180525022327 74 287 0.0 0.0 0.00 0.00 0.00 95 1017.7
20180525021833 74 287 0.0 0.0 0.00 0.00 0.00 95 1017.6
20180525021339 75 287 0.0 0.0 0.00 0.00 0.00 95 1017.7
20180525020824 75 287 0.0 0.0 0.00 0.00 0.00 95 1017.8
20180525020330 75 287 0.0 0.0 0.00 0.00 0.00 95 1017.8
20180525015834 75 287 0.0 0.0 0.00 0.00 0.00 95 1017.8
20180525015340 75 264 0.0 0.0 0.00 0.00 0.00 95 1017.8
20180525014826 75 264 0.0 0.0 0.00 0.00 0.00 95 1017.8
20180525014332 75 264 0.0 0.0 0.00 0.00 0.00 95 1017.7
20180525013838 75 264 0.0 0.0 0.00 0.00 0.00 94 1017.7
20180525013344 75 264 0.0 0.0 0.00 0.00 0.00 94 1017.6
20180525012829 75 264 0.0 0.0 0.00 0.00 0.00 94 1017.5
20180525012334 75 264 0.0 0.0 0.00 0.00 0.00 94 1017.4
20180525011841 75 264 0.0 0.0 0.00 0.00 0.00 93 1017.3
20180525011327 76 264 0.0 0.0 0.00 0.00 0.00 93 1017.2
20180525010832 76 264 0.0 0.0 0.00 0.00 0.00 93 1017.1
20180525010338 76 276 0.0 0.0 0.00 0.00 0.00 93 1017.0
20180525005843 76 276 0.0 0.0 0.00 0.00 0.00 93 1017.1
20180525005328 76 300 0.0 0.0 0.00 0.00 0.00 92 1017.0
20180525004829 77 301 0.0 0.0 0.00 0.00 0.00 92 1017.0
20180525004330 77 301 0.0 0.0 0.00 0.00 0.00 92 1016.9
20180525003836 77 301 0.0 0.0 0.00 0.00 0.00 91 1016.9
20180525003341 77 300 0.0 0.0 0.00 0.00 0.00 91 1016.9
20180525002826 78 301 0.0 0.0 0.00 0.00 0.00 91 1016.8
20180525002326 78 301 0.0 0.0 0.00 0.00 0.00 90 1016.7
20180525001844 78 301 0.0 0.0 0.00 0.00 0.00 89 1016.7
20180525001327 79 301 0.0 0.0 0.00 0.00 0.00 89 1016.7
20180525000830 79 300 0.0 0.0 0.00 0.00 0.00 88 1016.6
20180525000335 79 301 0.0 0.0 0.00 0.00 0.00 88 1016.5
20180524235840 79 225 0.0 0.0 0.00 0.00 0.00 87 1016.4
20180524235324 79 225 0.0 0.0 0.00 0.00 0.00 87 1016.3
20180524234831 79 224 0.0 0.0 0.00 0.00 0.00 87 1016.2
20180524234334 79 285 0.0 0.0 0.00 0.00 0.00 86 1016.3
20180524233838 80 259 0.0 0.0 0.00 0.00 0.00 84 1016.3
20180524233344 80 259 0.0 0.0 0.00 0.00 0.00 84 1016.1
20180524232829 80 259 0.0 0.0 0.00 0.00 0.00 82 1016.1
20180524232333 81 259 0.0 0.0 0.00 0.00 0.00 81 1016.1
20180524231835 81 259 0.0 0.0 0.00 0.00 0.00 81 1016.0
20180524231340 81 258 0.0 0.0 0.00 0.00 0.00 80 1016.1
20180524230826 81 258 0.0 0.0 0.00 0.00 0.00 80 1016.0
20180524230332 81 258 0.0 0.0 0.00 0.00 0.00 80 1016.1
20180524225837 81 258 0.0 0.0 0.00 0.00 0.00 81 1016.2
20180524225342 81 258 0.0 0.0 0.00 0.00 0.00 81 1016.1
20180524224828 81 259 0.0 0.0 0.00 0.00 0.00 79 1016.1
20180524224333 81 259 0.0 0.0 0.00 0.00 0.00 79 1016.1
20180524223839 81 259 0.0 0.0 0.00 0.00 0.00 78 1016.1
20180524223325 82 258 0.0 0.0 0.00 0.00 0.00 79 1016.0
20180524222829 82 259 0.0 0.0 0.00 0.00 0.00 77 1016.0
20180524222334 82 258 0.0 0.0 0.00 0.00 0.00 77 1016.0
20180524221839 82 258 0.0 0.0 0.00 0.00 0.00 76 1016.1
20180524221325 82 259 0.0 0.0 0.00 0.00 0.00 75 1016.0
20180524220831 83 259 0.0 0.0 0.00 0.00 0.00 74 1016.1
20180524220336 83 259 0.0 0.0 0.00 0.00 0.00 75 1016.2
20180524215825 83 258 0.0 0.0 0.00 0.00 0.00 74 1016.2
20180524215331 83 260 0.0 0.0 0.00 0.00 0.00 75 1016.3
20180524214836 84 260 0.0 0.0 0.00 0.00 0.00 74 1016.2
20180524214335 84 260 0.0 0.0 0.00 0.00 0.00 72 1016.2
20180524213825 85 260 0.0 0.0 0.00 0.00 0.00 70 1016.3
20180524213330 86 287 0.0 0.0 0.00 0.00 0.00 66 1016.3
20180524212835 87 287 0.0 0.0 0.00 0.00 0.00 69 1016.3
20180524212339 87 287 0.0 0.0 0.00 0.00 0.00 68 1016.3
20180524211327 86 294 0.0 0.0 0.00 0.00 0.00 70 1016.3
20180524210832 86 295 0.0 0.0 0.00 0.00 0.00 70 1016.4
20180524210338 86 295 0.0 0.0 0.00 0.00 0.00 68 1016.4
20180524205843 86 8 0.0 0.0 0.00 0.00 0.00 68 1016.4
20180524205329 86 294 0.0 0.0 0.00 0.00 0.00 69 1016.5
20180524204835 86 5 0.0 0.0 0.00 0.00 0.00 69 1016.6
20180524204341 86 26 0.0 0.0 0.00 0.00 0.00 71 1016.7
20180524203827 85 25 0.0 0.0 0.00 0.00 0.00 70 1016.8
20180524203332 85 26 0.0 0.0 0.00 0.00 0.00 71 1016.8
20180524202837 86 26 0.0 0.0 0.00 0.00 0.00 71 1016.8
20180524202342 86 89 0.0 0.0 0.00 0.00 0.00 68 1016.9
20180524201828 87 208 0.0 0.0 0.00 0.00 0.00 66 1016.9
20180524201334 87 205 0.0 0.0 0.00 0.00 0.00 63 1016.9
20180524200839 86 302 0.0 0.0 0.00 0.00 0.00 71 1016.9
20180524200325 85 55 0.0 0.0 0.00 0.00 0.00 69 1016.9
20180524195829 85 343 0.0 0.0 0.00 0.00 0.00 72 1016.9
20180524195335 86 343 0.0 0.0 0.00 0.00 0.00 70 1016.9
20180524194840 87 343 0.0 0.0 0.00 0.00 0.00 66 1017.0
20180524194326 87 259 0.0 0.0 0.00 0.00 0.00 68 1016.9
20180524193832 87 246 0.0 0.0 0.00 0.00 0.00 67 1017.0
20180524193337 88 146 0.0 0.0 0.00 0.00 0.00 70 1016.9
20180524192841 87 359 0.0 0.0 0.00 0.00 0.00 68 1017.0
20180524192327 87 262 0.0 0.0 0.00 0.00 0.00 68 1017.0
20180524191833 86 11 0.0 0.0 0.00 0.00 0.00 69 1017.1
20180524191339 86 59 0.0 0.0 0.00 0.00 0.00 67 1017.1
20180524190825 86 330 0.0 0.0 0.00 0.00 0.00 67 1017.3
20180524190330 86 29 0.0 0.0 0.00 0.00 0.00 69 1017.4
20180524185830 86 36 0.0 0.0 0.00 0.00 0.00 66 1017.5
20180524185334 87 263 0.0 0.0 0.00 0.00 0.00 67 1017.6
20180524184840 87 129 0.0 0.0 0.00 0.00 0.00 69 1017.7
20180524184326 86 167 0.0 0.0 0.00 0.00 0.00 65 1017.8
20180524183831 87 54 0.0 0.0 0.00 0.00 0.00 68 1017.8
20180524183338 86 88 0.0 0.0 0.00 0.00 0.00 67 1017.7
20180524182842 86 93 0.0 0.0 0.00 0.00 0.00 66 1017.7
20180524182325 87 338 0.0 0.0 0.00 0.00 0.00 68 1017.7
20180524181829 87 101 0.0 0.0 0.00 0.00 0.00 68 1018.0
20180524181335 86 205 0.0 0.0 0.00 0.00 0.00 69 1018.0
20180524180841 86 113 0.0 0.0 0.00 0.00 0.00 72 1018.1
20180524180326 85 66 0.0 0.0 0.00 0.00 0.00 72 1018.2
20180524175830 85 84 0.0 0.0 0.00 0.00 0.00 71 1018.3
20180524175336 85 343 0.0 0.0 0.00 0.00 0.00 71 1018.4
20180524174842 85 305 0.0 0.0 0.00 0.00 0.00 71 1018.5
20180524174328 85 67 0.0 0.0 0.00 0.00 0.00 68 1018.6
20180524173834 84 156 0.0 0.0 0.00 0.00 0.00 72 1018.6
20180524173340 84 64 0.0 0.0 0.00 0.00 0.00 72 1018.7
20180524172827 83 214 0.0 0.0 0.00 0.00 0.00 71 1018.8
20180524172329 83 172 0.0 0.0 0.00 0.00 0.00 76 1018.8
20180524171835 82 314 0.0 0.0 0.00 0.00 0.00 75 1019.0
20180524171341 82 300 0.0 0.0 0.00 0.00 0.00 74 1019.0
20180524170827 82 115 0.0 0.0 0.00 0.00 0.00 78 1019.1
20180524170334 82 99 0.0 0.0 0.00 0.00 0.00 77 1019.1
20180524165838 82 12 0.0 0.0 0.00 0.00 0.00 78 1019.1
20180524165343 82 286 0.0 0.0 0.00 0.00 0.00 75 1019.2
20180524164827 82 338 0.0 0.0 0.00 0.00 0.00 77 1019.2
20180524164333 81 127 0.0 0.0 0.00 0.00 0.00 80 1019.2
20180524163838 80 82 0.0 0.0 0.00 0.00 0.00 78 1019.3
20180524163344 80 88 0.0 0.0 0.00 0.00 0.00 80 1019.3
20180524162828 81 135 0.0 0.0 0.00 0.00 0.00 81 1019.3
20180524162334 80 214 0.0 0.0 0.00 0.00 0.00 81 1019.4
20180524161840 79 233 0.0 0.0 0.00 0.00 0.00 84 1019.5
20180524161325 79 215 0.0 0.0 0.00 0.00 0.00 82 1019.5
20180524160831 79 95 0.0 0.0 0.00 0.00 0.00 83 1019.6
20180524160338 79 96 0.0 0.0 0.00 0.00 0.00 87 1019.7
20180524155843 78 100 0.0 0.0 0.00 0.00 0.00 89 1019.7
20180524155329 77 100 0.0 0.0 0.00 0.00 0.00 88 1019.7
20180524154835 77 97 0.0 0.0 0.00 0.00 0.00 88 1019.8
20180524154341 76 98 0.0 0.0 0.00 0.00 0.00 88 1019.8
20180524153826 76 145 0.0 0.0 0.00 0.00 0.00 90 1019.8
20180524153332 75 163 0.0 0.0 0.00 0.00 0.00 91 1019.8
20180524152837 75 164 0.0 0.0 0.00 0.00 0.00 92 1019.8
20180524152343 75 85 0.0 0.0 0.00 0.00 0.00 92 1019.7
20180524151829 74 89 0.0 0.0 0.00 0.00 0.00 93 1019.7
20180524151335 74 86 0.0 0.0 0.00 0.00 0.00 94 1019.7
20180524150841 74 82 0.0 0.0 0.00 0.00 0.00 94 1019.7
20180524150328 74 79 0.0 0.0 0.00 0.00 0.00 94 1019.6
20180524145833 73 79 0.0 0.0 0.00 0.00 0.00 94 1019.5
20180524145339 74 79 0.0 0.0 0.00 0.00 0.00 93 1019.5
20180524144825 74 98 0.0 0.0 0.00 0.00 0.00 93 1019.5
20180524144331 74 99 0.0 0.0 0.00 0.00 0.00 94 1019.6
20180524143837 73 98 0.0 0.0 0.00 0.00 0.00 95 1019.6
20180524143342 73 98 0.0 0.0 0.00 0.00 0.00 95 1019.6
20180524142826 73 27 0.0 0.0 0.00 0.00 0.00 96 1019.5
20180524142332 73 31 0.0 0.0 0.00 0.00 0.00 96 1019.5
20180524141838 73 32 0.0 0.0 0.00 0.00 0.00 96 1019.6
20180524141324 73 37 0.0 0.0 0.00 0.00 0.00 96 1019.6
20180524140830 72 111 0.0 0.0 0.00 0.00 0.00 96 1019.5
20180524140336 72 111 0.0 0.0 0.00 0.00 0.00 97 1019.6
20180524135841 72 111 0.0 0.0 0.00 0.00 0.00 97 1019.5
20180524135326 72 122 0.0 0.0 0.00 0.00 0.00 98 1019.6
20180524134831 72 130 0.0 0.0 0.00 0.00 0.00 98 1019.6
20180524134336 71 129 0.0 0.0 0.00 0.00 0.00 98 1019.5
20180524133842 71 130 0.0 0.0 0.00 0.00 0.00 98 1019.5
20180524133328 71 129 0.0 0.0 0.00 0.00 0.00 99 1019.4
20180524132833 71 129 0.0 0.0 0.00 0.00 0.00 99 1019.3
20180524132339 71 130 0.0 0.0 0.00 0.00 0.00 99 1019.3
20180524131824 71 129 0.0 0.0 0.00 0.00 0.00 99 1019.3
20180524131331 71 129 0.0 0.0 0.00 0.00 0.00 99 1019.3
20180524130837 71 129 0.0 0.0 0.00 0.00 0.00 99 1019.2
20180524130327 71 128 0.0 0.0 0.00 0.00 0.00 99 1019.2
20180524125831 71 128 0.0 0.0 0.00 0.01 0.00 99 1019.2
20180524125338 70 129 0.0 0.0 0.00 0.01 0.00 99 1019.1
20180524124824 70 128 0.0 0.0 0.00 0.01 0.00 99 1019.1
20180524124330 70 128 0.0 0.0 0.00 0.01 0.00 99 1019.1
20180524123836 70 128 0.0 0.0 0.00 0.01 0.00 99 1019.1
20180524123342 70 128 0.0 0.0 0.00 0.01 0.00 99 1019.0
20180524122826 70 128 0.0 0.0 0.00 0.01 0.00 99 1018.9
20180524122332 70 146 0.0 0.0 0.00 0.01 0.00 99 1019.0
20180524121837 70 146 0.0 0.0 0.00 0.01 0.00 99 1019.0
20180524121323 70 146 0.0 0.0 0.00 0.01 0.00 99 1018.9
20180524120829 70 146 0.0 0.0 0.00 0.01 0.00 99 1018.8
20180524120335 70 146 0.0 0.0 0.00 0.01 0.00 99 1018.8
20180524115839 70 147 0.0 0.0 0.00 0.01 0.00 99 1018.7
20180524115324 70 146 0.0 0.0 0.00 0.01 0.00 99 1018.5
20180524114830 70 156 0.0 0.0 0.00 0.01 0.00 99 1018.5
20180524114336 70 156 0.0 0.0 0.00 0.01 0.00 99 1018.5
20180524113842 70 156 0.0 0.0 0.00 0.01 0.00 99 1018.5
20180524113329 70 143 0.0 0.0 0.00 0.01 0.00 99 1018.4
20180524112830 70 144 0.0 0.0 0.00 0.01 0.00 99 1018.3
20180524112335 71 144 0.0 0.0 0.00 0.01 0.00 99 1018.3
20180524111840 71 144 0.0 0.0 0.00 0.01 0.00 99 1018.2
20180524111327 71 143 0.0 0.0 0.00 0.01 0.00 99 1018.2
20180524110832 71 143 0.0 0.0 0.00 0.01 0.00 99 1018.2
20180524110338 71 143 0.0 0.0 0.00 0.01 0.00 99 1018.1
20180524105842 71 153 0.0 0.0 0.00 0.01 0.00 99 1018.1
20180524105328 71 153 0.0 0.0 0.00 0.01 0.00 99 1018.1
20180524104834 71 153 0.0 0.0 0.00 0.01 0.00 99 1018.0
20180524104339 71 153 0.0 0.0 0.00 0.01 0.00 99 1017.9
20180524103929 71 153 0.0 0.0 0.00 0.01 0.00 99 1017.8
20180524103330 70 155 0.0 0.0 0.00 0.01 0.00 99 1017.6
20180524102835 70 155 0.0 0.0 0.00 0.01 0.00 99 1017.6
20180524102341 70 155 0.0 0.0 0.00 0.01 0.00 99 1017.6
20180524101827 70 155 0.0 0.0 0.00 0.01 0.00 99 1017.6
20180524101333 71 155 0.0 0.0 0.00 0.01 0.00 99 1017.4
20180524100839 71 155 0.0 0.0 0.00 0.01 0.00 99 1017.5
20180524100325 71 155 0.0 0.0 0.00 0.01 0.00 99 1017.4
20180524095830 71 155 0.0 0.0 0.00 0.01 0.00 99 1017.2
20180524095336 71 155 0.0 0.0 0.00 0.01 0.00 99 1017.2
20180524094841 71 155 0.0 0.0 0.00 0.01 0.00 99 1017.1
20180524094327 71 155 0.0 0.0 0.00 0.01 0.00 99 1017.2
20180524093833 71 155 0.0 0.0 0.00 0.01 0.00 99 1017.1
20180524093339 71 155 0.0 0.0 0.00 0.01 0.00 99 1017.1
20180524092843 71 155 0.0 0.0 0.00 0.01 0.00 99 1017.1
20180524092329 71 155 0.0 0.0 0.00 0.01 0.00 99 1017.1
20180524091835 71 155 0.0 0.0 0.00 0.01 0.00 99 1017.0
20180524091341 71 155 0.0 0.0 0.00 0.01 0.00 99 1017.0
20180524090825 71 155 0.0 0.0 0.00 0.01 0.00 99 1016.9
20180524090330 71 155 0.0 0.0 0.00 0.01 0.00 99 1016.9
20180524085835 71 155 0.0 0.0 0.00 0.01 0.00 99 1016.9
20180524085331 70 155 0.0 0.0 0.00 0.01 0.00 99 1016.9
20180524084837 71 155 0.0 0.0 0.00 0.01 0.00 99 1016.9
20180524084342 71 155 0.0 0.0 0.00 0.01 0.00 99 1017.1
20180524083828 71 155 0.0 0.0 0.00 0.01 0.00 99 1017.2
20180524083333 71 155 0.0 0.0 0.00 0.01 0.00 99 1017.2
20180524082838 70 155 0.0 0.0 0.00 0.01 0.00 99 1017.3
20180524082324 70 155 0.0 0.0 0.00 0.01 0.00 99 1017.2
20180524081829 70 155 0.0 0.0 0.00 0.01 0.00 99 1017.2
20180524081335 70 155 0.0 0.0 0.00 0.01 0.00 99 1017.2
20180524080824 70 155 0.0 0.0 0.00 0.01 0.00 99 1017.2
20180524080330 70 155 0.0 0.0 0.00 0.01 0.00 99 1017.2
20180524075835 70 155 0.0 0.0 0.00 0.01 0.00 99 1017.3
20180524075341 70 155 0.0 0.0 0.00 0.01 0.00 99 1017.4
20180524074827 70 155 0.0 0.0 0.00 0.01 0.00 99 1017.3
20180524074333 70 155 0.0 0.0 0.00 0.01 0.00 99 1017.3
20180524073839 70 155 0.0 0.0 0.00 0.01 0.00 99 1017.2
20180524073344 70 155 0.0 0.0 0.00 0.01 0.00 99 1017.3
20180524072828 70 155 0.0 0.0 0.00 0.01 0.00 99 1017.3
20180524072334 70 155 0.0 0.0 0.00 0.01 0.00 99 1017.2
20180524071840 70 155 0.0 0.0 0.00 0.01 0.00 99 1017.2
20180524071326 70 155 0.0 0.0 0.00 0.01 0.00 99 1017.2
20180524070832 70 155 0.0 0.0 0.00 0.01 0.00 99 1017.1
20180524070338 70 155 0.0 0.0 0.00 0.01 0.00 99 1017.2
20180524065843 70 155 0.0 0.0 0.00 0.01 0.00 99 1017.2
20180524065329 70 155 0.0 0.0 0.00 0.01 0.00 99 1017.0
20180524064835 70 155 0.0 0.0 0.00 0.01 0.00 99 1017.0
20180524064341 70 155 0.0 0.0 0.00 0.01 0.00 99 1016.9
20180524063826 70 155 0.0 0.0 0.00 0.01 0.00 99 1016.9
20180524063332 70 155 0.0 0.0 0.00 0.01 0.00 99 1017.0
20180524062837 70 155 0.0 0.0 0.00 0.01 0.00 99 1017.2
20180524062342 70 155 0.0 0.0 0.00 0.01 0.00 99 1017.2
20180524061828 70 155 0.0 0.0 0.00 0.01 0.00 99 1017.2
20180524061333 70 155 0.0 0.0 0.00 0.01 0.00 99 1017.2
20180524060840 71 155 0.0 0.0 0.00 0.01 0.00 99 1017.3
20180524060326 71 155 0.0 0.0 0.00 0.01 0.00 98 1017.3
20180524055830 71 155 0.0 0.0 0.00 0.01 0.00 99 1017.5
20180524055336 71 155 0.0 0.0 0.00 0.01 0.00 98 1017.5
20180524054842 71 155 0.0 0.0 0.00 0.01 0.00 98 1017.4
20180524054329 71 155 0.0 0.0 0.00 0.01 0.00 98 1017.4
20180524053834 71 155 0.0 0.0 0.00 0.01 0.00 98 1017.4
20180524053341 71 155 0.0 0.0 0.00 0.01 0.00 98 1017.3
20180524052825 71 155 0.0 0.0 0.00 0.01 0.00 98 1017.3